Content
SEND FEEDBACK

Daily
Averages
Monthly
Summary
United States of America

WILMINGTON, NORTH CAROLINA


Home > North America > United States > North Carolina
Elevation: 21 meters     Latitude: 34 16N     Longitude: 077 54W

WEATHER
 
SELECT A DAY
Number of Records: 212,356;   Date Range: 1/1/95 - 10/23/14
 
SHARE

PRINT THIS DATA

[ ← Previous Day ]
WEATHER ALMANAC - 22 MAY, 2013
[ Next Day → ]
[ °F ]   °C
Weather ElementAverageHighLow
Temperature23.7 °C27.8 °C (1:53 pm)20 °C (4:53 am)
Dewpoint19.8 °C21.7 °C (8:53 am)18.3 °C (5:53 am)
Humidity79.5 %94 % (2:41 am)58 % (3:53 pm)
Barometer1016.6 hPa1017.9 hPa (8:53 am)1015.2 hPa (6:53 pm)
Wind Speed15.9 km/h27.8 km/h (2:41 am)
Wind Gust40.7 km/h (2:41 am)
Weather ElementAverage
Visibility14 km
Wind DirectionSSE (171.7 °)

Weather ElementTotal
Precipitation18.8 mm
Cooling Degree Days5.6 (Base 18.3)
Growing Degree Days13.9 (Base 10)
Averaged from 30 records on 22 May, 2013
WEATHER CONDITIONS BREAKOUT
WIND DIRECTION BREAKOUT
WEATHER BY HOUR - 22 MAY, 2013
[ °F ]   °C
Local TimeTemperatureDewpointHumidityBarometerVisibilityWind DirectionWind SpeedGust SpeedPrecipitationEventsConditions
1:53 AM21.7 °C20 °C90 %1016.9 hPa16.1 kmSouth (190°)7.4 km/h0 mmScattered Clouds
2:41 AM21 °C20 °C94 %1017.3 hPa2.9 kmSW (230°)27.8 km/h40.7 km/h1.52 mmRainHeavy Rain
2:43 AM21 °C19 °C88 %1016.9 hPa1.9 kmSW (230°)24.1 km/h40.7 km/h2.79 mmRainHeavy Rain
2:48 AM21 °C19 °C88 %1016.9 hPa2.9 kmSSW (210°)18.5 km/h37 km/h4.83 mmRainHeavy Rain
2:53 AM21.1 °C19.4 °C90 %1016.9 hPa6.4 kmSSW (200°)13 km/h31.5 km/h5.33 mmRainLight Rain
3:53 AM21.1 °C19.4 °C90 %1017.3 hPa6.4 kmSouth (180°)18.5 km/h1.52 mmRainLight Rain
4:53 AM20 °C18.9 °C93 %1016.9 hPa12.9 kmSouth (180°)13 km/h2.29 mmRainLight Rain
5:53 AM20 °C18.3 °C90 %1016.6 hPa16.1 kmSouth (170°)9.3 km/h0.51 mmScattered Clouds
6:53 AM20.6 °C19.4 °C93 %1016.9 hPa14.5 kmCalmClear
7:53 AM22.2 °C20.6 °C91 %1017.3 hPa16.1 kmSSE (150°)7.4 km/hClear
8:53 AM24.4 °C21.7 °C85 %1017.9 hPa16.1 kmSouth (180°)11.1 km/hClear
9:16 AM25 °C21 °C78 %1017.9 hPa16.1 kmSouth (180°)11.1 km/hMostly Cloudy
9:43 AM24 °C21 °C83 %1017.6 hPa16.1 kmSouth (180°)9.3 km/hPartly Cloudy
9:53 AM24.4 °C20.6 °C79 %1017.6 hPa16.1 kmSSE (150°)13 km/hPartly Cloudy
10:53 AM26.7 °C20 °C67 %1017.9 hPa16.1 kmSSW (200°)13 km/hPartly Cloudy
11:53 AM27.2 °C20 °C65 %1017.9 hPa16.1 kmSSE (160°)20.4 km/hScattered Clouds
12:53 PM27.2 °C19.4 °C62 %1017.6 hPa16.1 kmSouth (170°)22.2 km/hMostly Cloudy
1:53 PM27.8 °C20 °C62 %1016.9 hPa16.1 kmSSE (150°)20.4 km/h35.2 km/hScattered Clouds
2:53 PM27.8 °C19.4 °C60 %1016.6 hPa16.1 kmSouth (180°)25.9 km/h35.2 km/hPartly Cloudy
3:53 PM27.8 °C18.9 °C58 %1016.3 hPa16.1 kmSouth (170°)27.8 km/hPartly Cloudy
4:53 PM26.1 °C20.6 °C72 %1015.9 hPa16.1 kmSouth (180°)20.4 km/h27.8 km/h0 mmRainLight Rain
5:53 PM26.7 °C18.9 °C62 %1015.6 hPa16.1 kmSouth (180°)22.2 km/h35.2 km/h0 mmScattered Clouds
6:53 PM25 °C19.4 °C71 %1015.2 hPa16.1 kmSSE (160°)20.4 km/hPartly Cloudy
7:20 PM24 °C19 °C73 %1015.2 hPa16.1 kmSSE (160°)22.2 km/h29.6 km/hMostly Cloudy
7:42 PM24 °C19 °C73 %1015.2 hPa16.1 kmSouth (170°)18.5 km/h27.8 km/hScattered Clouds
7:53 PM23.3 °C20 °C82 %1015.2 hPa16.1 kmSouth (170°)18.5 km/hPartly Cloudy
8:53 PM22.8 °C20.6 °C87 %1015.6 hPa16.1 kmSouth (170°)13 km/hClear
9:53 PM22.8 °C20 °C84 %1016.3 hPa16.1 kmSouth (170°)11.1 km/hClear
10:53 PM22.8 °C20 °C84 %1016.3 hPa16.1 kmSouth (170°)11.1 km/hClear
11:53 PM22.2 °C20.6 °C91 %1015.9 hPa16.1 kmSSE (160°)7.4 km/hPartly Cloudy
Hourly data recorded from KILM, located 0 kilometers away from Wilmington, North Carolina







STORIES FROM OUR PARTNERS